[[{"header":{"parameterUnit":"m.s-1","parameterCategory":1,"la1":30.2991,"la2":30.254,"lo1":-89.0895,"lo2":-89.0444,"dy":0.0017,"dx":0.0017,"nx":28,"ny":28,"refTime":"2025-08-30T03:00:00:Z","depth":0,"parameterNumber":2,"parameterNumberName":"U-component_of_WINDS"},"data":[0,0,0,0,0,0,0,0,0,0,0,0,0,0,0,0,0,0,0,0,0,0,0,0,0,0,0,0,0,0,0,0,0,0,0,0,0,0,0,0,0,0,0,0,0,0,0,0,0,0,0,0,0,0,0,0,0,0,-2.658,-2.6581,0,-2.667,-2.6671,-2.6672,-2.6599,-2.6596,-2.6593,-2.659,-2.6683,-2.6688,-2.6694,0,0,0,0,0,0,0,0,0,0,0,0,0,-2.6347,-2.6351,-2.658,-2.6581,-2.6583,-2.667,-2.6671,-2.6672,-2.6599,-2.6596,-2.6592,-2.6588,-2.6681,-2.6688,-2.6694,0,0,0,0,0,0,0,0,0,0,0,0,0,-2.6444,-2.6353,-2.658,-2.6557,-2.6556,-2.6669,-2.6671,-2.6672,-2.66,-2.6596,-2.6591,-2.6587,-2.6679,-2.6687,-2.6695,-2.6837,0,0,-2.6719,-2.6723,0,0,0,0,0,0,0,0,-2.6438,-2.6452,-2.6559,-2.6559,-2.6557,-2.6618,-2.6623,-2.6728,-2.6601,-2.6583,-2.659,-2.6584,-2.6665,-2.6674,-2.6701,-2.6841,-2.6845,-2.672,-2.6725,-2.6729,-2.6731,0,0,0,0,0,0,0,-2.6431,-2.6448,-2.6616,-2.6561,-2.656,-2.6542,-2.655,-2.6642,-2.6649,-2.6585,-2.6579,-2.6591,-2.6664,-2.6694,-2.6703,-2.6847,-2.672,-2.6727,-2.6732,-2.6735,-2.7106,-2.711,0,0,0,0,0,0,-2.6427,-2.6443,-2.6613,-2.6618,-2.6485,-2.655,-2.6559,-2.6604,-2.6648,-2.665,-2.6595,-2.6587,-2.6682,-2.6694,-2.6706,-2.6874,-2.6728,-2.6736,-2.6741,-2.7101,-2.7107,-2.7112,0,0,0,0,0,0,-2.6422,-2.6443,-2.6609,-2.6529,-2.6549,-2.6559,-2.6609,-2.6608,-2.6637,-2.6656,-2.6657,-2.6624,-2.6679,-2.6695,-2.6804,-2.6876,-2.674,-2.6747,-2.7095,-2.7102,-2.7109,-2.7212,0,0,0,0,0,0,-2.6416,-2.6442,-2.6496,-2.6531,-2.6554,-2.6707,-2.6613,-2.6613,-2.6651,-2.6642,-2.6683,-2.6686,-2.6677,-2.6793,-2.6812,-2.6885,-2.6753,-2.7088,-2.7098,-2.7107,-2.7202,-2.7222,-2.7239,0,0,0,0,0,-2.6408,-2.6522,-2.6499,-2.652,-2.6622,-2.6711,-2.6724,-2.6711,-2.6657,-2.6712,-2.6723,-2.6684,-2.6865,-2.6805,-2.6826,-2.6902,-2.7084,-2.7095,-2.7106,-2.7194,-2.7218,-2.7238,0,0,0,0,0,0,-2.6496,-2.6526,-2.6501,-2.663,-2.6668,-2.6698,-2.6767,-2.6737,-2.6792,-2.6781,-2.6763,-2.6773,-2.6888,-2.6906,-2.6838,-2.704,-2.6966,-2.6982,-2.7025,-2.7048,-2.7066,-2.7059,-2.676,0,0,0,0,0,-2.653,-2.66,-2.6623,-2.6734,-2.6755,-2.6758,-2.6796,-2.6782,-2.6821,-2.6838,-2.6857,-2.6897,-2.6962,-2.7006,-2.7068,-2.7204,-2.7211,-2.7266,-2.7285,-2.73,-2.7314,-2.7386,-2.741,-2.7149,-2.7149,-2.7149,0,0,-2.6602,-2.6627,-2.6673,-2.6752,-2.6781,-2.6853,-2.6772,-2.6852,-2.6906,-2.685,-2.6954,-2.697,-2.7013,-2.7136,-2.7192,-2.7155,-2.7387,-2.7314,-2.7326,-2.7332,-2.74,-2.7424,-2.7446,-2.7157,-2.7155,-2.7154,0,0,-2.677,-2.6797,-2.6891,-2.6921,-2.6964,-2.6964,-2.6987,-2.7022,-2.703,-2.7134,-2.7093,-2.7156,-2.727,-2.7302,-2.7333,-2.7511,-2.7476,-2.7531,-2.7627,-2.7697,-2.7718,-2.7736,-2.7798,-2.7821,-2.7545,-2.7545,-2.7546,0,-2.6854,-2.6961,-2.6944,-2.7027,-2.7063,-2.7014,-2.711,-2.7139,-2.7201,-2.7227,-2.7184,-2.7324,-2.735,-2.7479,-2.7522,-2.755,-2.7574,-2.7526,-2.7716,-2.7734,-2.7751,-2.781,-2.7834,-2.7552,-2.7551,-2.755,-2.755,0,-2.7062,-2.7137,-2.7208,-2.7268,-2.7311,-2.7401,-2.7396,-2.7443,-2.7425,-2.743,-2.7536,-2.7565,-2.763,-2.766,-2.7644,-2.7787,-2.7762,-2.7719,-2.7643,-2.7782,-2.7838,-2.786,-2.7561,-2.7558,-2.7557,-2.7555,0,0,-2.7289,-2.7336,-2.7362,-2.7388,-2.7431,-2.7488,-2.7575,-2.7638,-2.7678,-2.7721,-2.7792,-2.7889,-2.7848,-2.7883,-2.787,-2.7932,-2.8069,-2.788,-2.7881,-2.7914,-2.8227,-2.8259,-2.8285,-2.8047,-2.8051,-2.8054,-2.8222,0,-2.7458,-2.7607,-2.7593,-2.7735,-2.7803,-2.7758,-2.7832,-2.7867,-2.7874,-2.7932,-2.794,-2.8008,-2.795,-2.797,-2.8029,-2.804,-2.8132,-2.8028,-2.8112,-2.8116,-2.8103,-2.8314,-2.8349,-2.8506,-2.8244,-2.8248,-2.825,0,-2.7675,-2.7725,-2.7873,-2.7904,-2.7932,-2.8,-2.8055,-2.8113,-2.815,-2.8151,-2.8189,-2.8165,-2.8251,-2.8174,-2.8292,-2.8221,-2.8255,-2.8265,-2.8271,-2.8278,-2.8191,-2.8326,-2.8556,-2.858,-2.8285,-2.8282,-2.8279,0,-2.7824,-2.7929,-2.803,-2.8054,-2.8093,-2.8141,-2.8159,-2.8192,-2.823,-2.8279,-2.8304,-2.8363,-2.8395,-2.844,-2.8432,-2.8377,-2.8552,-2.8475,-2.8555,-2.8555,-2.8594,-2.8591,-2.8832,-2.8617,-2.8617,-2.8616,-2.8616,0,-2.8014,-2.8106,-2.8097,-2.816,-2.8262,-2.8244,-2.8345,-2.8358,-2.8388,-2.8451,-2.8416,-2.8476,-2.8462,-2.8523,-2.8517,-2.8615,-2.863,-2.8632,-2.863,-2.8635,-2.8635,-2.8657,-2.8645,-2.8622,-2.8621,-2.862,-2.8619,0,-2.8198,-2.8196,-2.8303,-2.8331,-2.834,-2.8413,-2.8437,-2.8495,-2.8498,-2.858,-2.8598,-2.8603,-2.8672,-2.8668,-2.8747,-2.8743,-2.8863,-2.8848,-2.885,-2.8847,-2.8926,-2.8919,-2.9189,-2.9223,-2.8987,-2.8989,-2.8991,0,-2.8319,-2.8389,-2.8423,-2.8462,-2.8484,-2.8549,-2.8587,-2.8572,-2.8614,-2.8661,-2.8714,-2.8779,-2.883,-2.8942,-2.8953,-2.9013,-2.8998,-2.9089,-2.9007,-2.901,-2.8998,-2.8994,-2.9,-2.9105,-2.9107,-2.9109,-2.9111,0,-2.8533,-2.8528,-2.8584,-2.864,-2.8687,-2.873,-2.877,-2.8805,-2.8794,-2.8842,-2.8911,-2.8951,-2.903,-2.9095,-2.9151,-2.917,-2.9139,-2.9137,-2.9158,-2.9164,-2.9162,-2.9163,-2.8893,-2.9131,-2.9129,-2.9127,-2.9126,-2.9125,-2.8688,-2.8747,-2.878,-2.8844,-2.8872,-2.8909,-2.8965,-2.8974,-2.9032,-2.9094,-2.9082,-2.916,-2.9194,-2.9266,-2.929,-2.935,-2.9318,-2.935,-2.9357,-2.9365,-2.9373,-2.9153,-2.9361,-2.936,-2.936,-2.9359,-2.9359,0,-2.8899,-2.8918,-2.8976,-2.9032,-2.9082,-2.9047,-2.9089,-2.9133,-2.9201,-2.9236,-2.9286,-2.9365,-2.9428,-2.9443,-2.9503,-2.9548,-2.9535,-2.9564,-2.956,-2.9565,-2.94,-2.9375,-2.9573,-2.9573,-2.9573,-2.9573,-2.9573,-2.9573,-2.9015,-2.9112,-2.9111,-2.9222,-2.9239,-2.9314,-2.9341,-2.9375,-2.9402,-2.9491,-2.9543,-2.9552,-2.9578,-2.9639,-2.9695,-2.9697,-2.972,-2.9755,-2.9752,-2.9598,-2.9576,-2.9556,-2.9532,-2.9761,-2.9761,-2.9912,-2.9913,-2.9914]},{"header":{"parameterUnit":"m.s-1","parameterCategory":1,"la1":30.2991,"la2":30.254,"lo1":-89.0895,"lo2":-89.0444,"dy":0.0017,"dx":0.0017,"nx":28,"ny":28,"refTime":"2025-08-30T03:00:00:Z","depth":0,"parameterNumber":3,"parameterNumberName":"V-component_of_WINDS"},"data":[0,0,0,0,0,0,0,0,0,0,0,0,0,0,0,0,0,0,0,0,0,0,0,0,0,0,0,0,0,0,0,0,0,0,0,0,0,0,0,0,0,0,0,0,0,0,0,0,0,0,0,0,0,0,0,0,0,0,-2.2008,-2.201,0,-2.2122,-2.2123,-2.2124,-2.2147,-2.2147,-2.2146,-2.2145,-2.2256,-2.2259,-2.2263,0,0,0,0,0,0,0,0,0,0,0,0,0,-2.1805,-2.1808,-2.2008,-2.201,-2.2011,-2.2122,-2.2123,-2.2125,-2.2148,-2.2147,-2.2145,-2.2145,-2.2254,-2.2259,-2.2263,0,0,0,0,0,0,0,0,0,0,0,0,0,-2.1903,-2.181,-2.2008,-2.2036,-2.204,-2.2121,-2.2123,-2.2125,-2.2148,-2.2147,-2.2145,-2.2144,-2.2253,-2.2258,-2.2264,-2.2324,0,0,-2.2281,-2.2283,0,0,0,0,0,0,0,0,-2.1897,-2.191,-2.203,-2.2034,-2.2038,-2.2119,-2.2092,-2.2192,-2.2148,-2.2107,-2.2145,-2.2143,-2.2211,-2.222,-2.2244,-2.2329,-2.2334,-2.2281,-2.2285,-2.2287,-2.2289,0,0,0,0,0,0,0,-2.1891,-2.1906,-2.2053,-2.2032,-2.2037,-2.2041,-2.2053,-2.2111,-2.2164,-2.211,-2.2112,-2.2125,-2.2213,-2.2238,-2.2247,-2.2336,-2.2281,-2.2286,-2.229,-2.2292,-2.2474,-2.2476,0,0,0,0,0,0,-2.188,-2.19,-2.2049,-2.2056,-2.1964,-2.2045,-2.2059,-2.2095,-2.2164,-2.2173,-2.2126,-2.2126,-2.2229,-2.224,-2.225,-2.2325,-2.2287,-2.2292,-2.2296,-2.2473,-2.2474,-2.2476,0,0,0,0,0,0,-2.1875,-2.1893,-2.2045,-2.1979,-2.1998,-2.205,-2.2089,-2.2097,-2.2123,-2.2176,-2.2185,-2.2143,-2.2229,-2.2243,-2.2306,-2.2329,-2.2295,-2.23,-2.2471,-2.2473,-2.2475,-2.2474,0,0,0,0,0,0,-2.1869,-2.1891,-2.1916,-2.1979,-2.2002,-2.21,-2.2091,-2.2101,-2.2133,-2.2134,-2.2194,-2.2203,-2.2229,-2.2297,-2.2311,-2.2336,-2.2305,-2.2469,-2.2472,-2.2475,-2.2472,-2.2476,-2.2479,0,0,0,0,0,-2.1862,-2.191,-2.1917,-2.1935,-2.2035,-2.2101,-2.2114,-2.2145,-2.2135,-2.216,-2.2193,-2.2201,-2.2324,-2.2303,-2.2319,-2.2346,-2.2468,-2.2471,-2.2474,-2.2471,-2.2475,-2.2479,0,0,0,0,0,0,-2.1847,-2.1919,-2.1928,-2.1998,-2.2044,-2.2105,-2.2137,-2.2148,-2.2196,-2.2194,-2.2228,-2.2241,-2.2302,-2.233,-2.2306,-2.2407,-2.2395,-2.2402,-2.2387,-2.2392,-2.2395,-2.2387,-2.2309,0,0,0,0,0,-2.1852,-2.1902,-2.1962,-2.2018,-2.2041,-2.2085,-2.2115,-2.2135,-2.2182,-2.2201,-2.224,-2.2284,-2.2332,-2.2363,-2.2411,-2.2476,-2.2489,-2.2502,-2.2506,-2.2508,-2.2514,-2.2549,-2.2555,-2.2487,-2.2487,-2.2487,0,0,-2.1863,-2.1908,-2.1938,-2.2016,-2.2054,-2.2103,-2.2101,-2.2153,-2.2189,-2.2208,-2.2271,-2.23,-2.2351,-2.2416,-2.2446,-2.2441,-2.2535,-2.2513,-2.2514,-2.2518,-2.2553,-2.2559,-2.2565,-2.2489,-2.2489,-2.2488,0,0,-2.1907,-2.1948,-2.1999,-2.2037,-2.2094,-2.2123,-2.2135,-2.2195,-2.2215,-2.2279,-2.2294,-2.2336,-2.2419,-2.2455,-2.2484,-2.2541,-2.2549,-2.2555,-2.2573,-2.2607,-2.2612,-2.2617,-2.2636,-2.2643,-2.256,-2.256,-2.256,0,-2.1913,-2.199,-2.2023,-2.2075,-2.2108,-2.2129,-2.218,-2.2214,-2.2283,-2.2304,-2.2299,-2.2403,-2.2439,-2.2511,-2.2525,-2.2548,-2.2561,-2.2548,-2.2609,-2.2614,-2.2619,-2.2638,-2.2645,-2.256,-2.256,-2.256,-2.256,0,-2.1993,-2.2046,-2.208,-2.2148,-2.2185,-2.2236,-2.2275,-2.2308,-2.2323,-2.2352,-2.2415,-2.2459,-2.2515,-2.2534,-2.2549,-2.2608,-2.2603,-2.2603,-2.2591,-2.2625,-2.2644,-2.2651,-2.2561,-2.2561,-2.2561,-2.2561,0,0,-2.2032,-2.2118,-2.2129,-2.216,-2.2224,-2.2265,-2.2315,-2.2372,-2.2399,-2.2445,-2.2488,-2.2557,-2.2557,-2.259,-2.2609,-2.2639,-2.268,-2.2635,-2.2636,-2.2641,-2.2745,-2.2745,-2.2753,-2.2685,-2.2687,-2.2688,-2.2741,0,-2.2084,-2.2178,-2.2209,-2.2286,-2.2334,-2.2354,-2.2397,-2.244,-2.2468,-2.2511,-2.2541,-2.2589,-2.2586,-2.2606,-2.2636,-2.2668,-2.2701,-2.2665,-2.2723,-2.2725,-2.271,-2.2762,-2.2762,-2.281,-2.2748,-2.2749,-2.275,0,-2.2157,-2.2207,-2.2289,-2.2346,-2.2368,-2.2407,-2.2461,-2.2503,-2.255,-2.2568,-2.2605,-2.2622,-2.2673,-2.2658,-2.2728,-2.2703,-2.2728,-2.2748,-2.275,-2.2756,-2.2739,-2.2769,-2.2826,-2.2833,-2.2762,-2.2761,-2.276,0,-2.2176,-2.2263,-2.2323,-2.2349,-2.2418,-2.2444,-2.2474,-2.2521,-2.2553,-2.2599,-2.2619,-2.267,-2.2698,-2.2736,-2.2765,-2.2752,-2.2832,-2.282,-2.2846,-2.2846,-2.2862,-2.2861,-2.2923,-2.2879,-2.2879,-2.2879,-2.2879,0,-2.2231,-2.228,-2.2333,-2.237,-2.2425,-2.2459,-2.2511,-2.2542,-2.2583,-2.2624,-2.2644,-2.2682,-2.2718,-2.276,-2.2783,-2.2837,-2.2849,-2.2864,-2.2869,-2.2862,-2.286,-2.2879,-2.2876,-2.2881,-2.2881,-2.288,-2.288,0,-2.2261,-2.2299,-2.2366,-2.2426,-2.2442,-2.248,-2.2529,-2.2565,-2.2593,-2.2645,-2.2659,-2.2703,-2.2754,-2.2787,-2.285,-2.2866,-2.2924,-2.2929,-2.2909,-2.2911,-2.2935,-2.2932,-2.3012,-2.3023,-2.2972,-2.2972,-2.2973,0,-2.2294,-2.2332,-2.2396,-2.2427,-2.2457,-2.2505,-2.2538,-2.2572,-2.2604,-2.2662,-2.2689,-2.2742,-2.2785,-2.2865,-2.2901,-2.2949,-2.2955,-2.2979,-2.2962,-2.2953,-2.2954,-2.2951,-2.2955,-2.2982,-2.2982,-2.2982,-2.2983,0,-2.2346,-2.2363,-2.2411,-2.2465,-2.2504,-2.2548,-2.2591,-2.2614,-2.2655,-2.269,-2.2744,-2.2777,-2.2843,-2.2894,-2.2946,-2.2973,-2.2984,-2.2988,-2.2996,-2.2989,-2.2976,-2.2982,-2.2915,-2.2986,-2.2985,-2.2985,-2.2985,-2.2985,-2.2378,-2.2413,-2.2464,-2.2516,-2.2553,-2.2593,-2.2629,-2.2662,-2.2708,-2.2765,-2.2782,-2.2836,-2.2881,-2.2952,-2.2981,-2.3022,-2.3019,-2.3032,-2.3035,-2.3038,-2.3037,-2.2969,-2.3032,-2.3032,-2.3032,-2.3032,-2.3032,0,-2.2431,-2.2465,-2.2513,-2.2574,-2.2614,-2.2623,-2.2671,-2.2704,-2.2752,-2.2795,-2.2837,-2.2897,-2.2946,-2.2986,-2.3036,-2.3062,-2.3068,-2.3073,-2.3072,-2.3078,-2.3038,-2.3025,-2.3068,-2.3068,-2.3068,-2.3068,-2.3068,-2.3068,-2.2464,-2.2523,-2.2546,-2.2622,-2.2655,-2.271,-2.2737,-2.2773,-2.2807,-2.2873,-2.2915,-2.2942,-2.2982,-2.3035,-2.308,-2.309,-2.3107,-2.3112,-2.3123,-2.3085,-2.308,-2.3077,-2.3065,-2.3115,-2.3115,-2.3159,-2.316,-2.316]}]]